Flag for Germany Past Weather in Pfaffenhofen an der Ilm, Bavaria, Germany — Yesterday and Last 2 Weeks

Now
55 °F

Cool.


Feels Like: 55 °F
Forecast: 47 / 70 °F
Wind: No wind

Location: Ingolstadt Airport

Current Time: Sep 25, 2016 at 11:01:54 PM

Latest Report: Sep 25, 2016 at 9:20 PM


Visibility: 0 mi

Pressure: 30.15 "Hg

Humidity: 88%

Dew Point: 52 °F

Location of Pfaffenhofen an der IlmLocation

Past Weather in Pfaffenhofen an der Ilm — Graph

°F

Pfaffenhofen an der Ilm Temperature Yesterday

Maximum temperature yesterday: 68 °F (at 2:20 PM)
Minimum temperature yesterday: 45 °F (at 4:20 AM)
Average temperature yesterday: 55 °F

High & Low Weather Summary for the Past Weeks

 TemperatureHumidityPressure
High84 °F (Sep 11, 3:20 PM)100% (Sep 11, 6:20 AM)30.36 "Hg (Sep 11, 6:20 AM)
Low41 °F (Sep 21, 7:20 AM)31% (Sep 15, 4:20 PM)29.86 "Hg (Sep 15, 5:20 AM)
Average60 °F77%30.06 "Hg
* Reported Sep 10 9:20 PM — Sep 25 9:20 PM, Pfaffenhofen an der Ilm, Weather by CustomWeather, © 2016

Note: Actual official high and low records may vary slightly from our data, if they occured in-between our weather recording intervals... More about our weather records

Advertising

Pfaffenhofen an der Ilm Weather History for the Previous 24 Hours

Scroll right to see more
 ConditionsComfort  
Time TempWeatherWind HumidityBarometerVisibility
9:20 PM
Sun, Sep 25
55 °FCool.No wind88%30.15 "Hg1 mi
8:20 PM57 °FCool.1 mph88%30.15 "Hg1 mi
7:20 PM63 °FMild.No wind77%30.12 "Hg6 mi
6:20 PM68 °FMild.1 mph56%30.12 "HgN/A
5:20 PM72 °FMild.1 mph47%30.12 "HgN/A
4:20 PM72 °FMild.2 mph50%30.12 "HgN/A
3:20 PM70 °FMild.3 mph53%30.12 "HgN/A
2:20 PM68 °FMild.2 mph56%30.12 "HgN/A
1:20 PM66 °FMild.3 mph60%30.15 "HgN/A
12:20 PM64 °FMild.3 mph64%30.15 "Hg6 mi
11:20 AM59 °FCool.2 mph72%30.18 "Hg5 mi
10:20 AM55 °FCool.1 mph77%30.18 "Hg5 mi
9:20 AM50 °FCool.1 mph94%30.18 "Hg3 mi
8:20 AM45 °FQuite cool.1 mph93%30.18 "Hg0 mi
7:20 AM43 °FQuite cool.No wind93%30.18 "Hg0 mi
6:20 AM43 °FQuite cool.1 mph93%30.18 "Hg0 mi
5:20 AM41 °FQuite cool.No wind100%30.18 "Hg0 mi
4:20 AM45 °FQuite cool.No wind93%30.18 "Hg0 mi
3:20 AM46 °FCool.2 mph93%30.21 "Hg0 mi
2:20 AM45 °FQuite cool.No wind93%30.21 "Hg1 mi
1:20 AM48 °FCool.1 mph94%30.21 "Hg0 mi
12:20 AM48 °FCool.2 mph94%30.21 "Hg5 mi
11:20 PM
Sat, Sep 24
50 °FPassing clouds.3 mph94%30.24 "HgN/A
Weather by CustomWeather, © 2016

See weather overviewHow to use our weather pages